Flag for Germany Weather past 2 weeks in Heide, Schleswig-Holstein, Germany

Now
75 °F

Mild.


Feels Like: 76 °F
Forecast: 64 / 80 °F
Wind: 7 mph from South

Location: Hohn

Current Time: Jul 4, 2015 at 9:49:37 PM

Latest Report: Jul 4, 2015 at 9:20 PM


Visibility: 4 mi

Pressure: 30.07 "Hg

Humidity: 78%

Dew point: 68 °F

Location of HeideLocation

Historic Weather in Heide — Graph

°F

Heide temperature yesterday

Maximum temperature yesterday: 84 °F (at 3:20 PM)
Minimum temperature yesterday: 61 °F (at 5:20 AM)
Average temperature yesterday: 74 °F

Past Weeks' High & Low Weather Summary

 TemperatureHumidityPressure
High88 °F (Jul 2, 5:20 PM)100% (Jun 22, 1:20 AM)30.24 "Hg (Jun 22, 1:20 AM)
Low46 °F (Jun 23, 5:20 AM)31% (Jul 2, 5:20 PM)29.62 "Hg (Jun 23, 1:20 AM)
Average62 °F76%30.05 "Hg
* Reported Jun 19 8:20 PM — Jul 4 8:20 PM, Heide, Weather by CustomWeather, © 2015

Note: Actual official high and low records may vary slightly from our data, if they occured in-between our weather recording intervals... More about our weather records

Advertising

Heide weather history for previous 24 hours

 ConditionsComfort  
Time TempWeatherWind HumidityBarometerVisibility
8:20 PM
Sat, Jul 4
79 °FWarm.6 mph61%30.04 "HgN/A
7:20 PM81 °FWarm.13 mph58%30.04 "HgN/A
6:20 PM82 °FWarm.13 mph58%30.04 "HgN/A
5:20 PM82 °FWarm.15 mph55%30.07 "HgN/A
4:20 PM82 °FWarm.16 mph58%30.07 "HgN/A
3:20 PM82 °FWarm.14 mph58%30.07 "HgN/A
2:20 PM84 °FWarm.13 mph55%30.09 "HgN/A
1:20 PM84 °FWarm.14 mph55%30.09 "HgN/A
12:20 PM82 °FWarm.12 mph55%30.09 "HgN/A
11:20 AM81 °FWarm.14 mph54%30.12 "HgN/A
10:20 AM79 °FWarm.13 mph61%30.12 "HgN/A
9:20 AM75 °FMild.12 mph65%30.15 "HgN/A
8:20 AM73 °FMild.9 mph74%30.15 "HgN/A
7:20 AM68 °FMild.7 mph83%30.15 "Hg6 mi
6:20 AM64 °FMild.5 mph88%30.15 "Hg6 mi
5:20 AM63 °FMild.3 mph94%30.18 "Hg5 mi
4:20 AM63 °FMild.2 mph94%30.18 "Hg6 mi
3:20 AM64 °FMild.5 mph94%30.18 "Hg6 mi
2:20 AM63 °FMild.1 mph94%30.21 "Hg6 mi
1:20 AM63 °FMild.2 mph94%30.21 "HgN/A
12:20 AM66 °FMild.No wind88%30.21 "HgN/A
11:20 PM
Fri, Jul 3
66 °FMild.1 mph88%30.24 "Hg6 mi
10:20 PM70 °FMild.1 mph83%30.24 "HgN/A
9:20 PM75 °FMild.3 mph69%30.24 "HgN/A
Weather by CustomWeather, © 2015

See weather overviewHow to use our weather pages